Akron, CO

4:25 PM MST on December 06, 2016 (GMT -0700)
Akron-Washington County

Weather History for KAKO - March, 2013

Change the Weather History Date:

Sunday, March 3, 2013

  Actual Average Record
Temperature  
Mean Temperature 48 °F 36 °F  
Max Temperature 61 °F 49 °F 74 °F (2009)
Min Temperature 35 °F 23 °F -18 °F (1960)
Degree Days  
Heating Degree Days 17    
Month to date heating degree days 73  
Cooling Degree Days 0    
Month to date cooling degree days 0  
Moisture  
Dew Point 26 °F    
Average Humidity 41    
Maximum Humidity 60    
Minimum Humidity 22    
Precipitation  
Precipitation 0.00 in 0.02 in 0.26 in (1981)
Month to date precipitation 0.00 0.06  
Year to date precipitation 0.12 0.80  
Sea Level Pressure  
Sea Level Pressure 29.72 in    
Wind  
Wind Speed 9 mph (WSW)    
Max Wind Speed 17 mph    
Max Gust Speed 22 mph    
Visibility 10 miles    
Events      
T = Trace of Precipitation, MM = Missing Value Source: NWS Daily Summary

Daily Weather History Graph

Daily Weather History Graph

Search for Another Location

Airport or City:

Trip Planner

Search our weather history database for the weather conditions in past years. The results will help you decide how hot, cold, wet, or windy it might be!

Date:

Astronomy

Mar. 03, 2013 Rise Set
Actual Time 6:22 AM MST 5:47 PM MST
Civil Twilight 5:55 AM MST 6:14 PM MST
Nautical Twilight 5:24 AM MST 6:45 PM MST
Astronomical Twilight 4:52 AM MST 7:17 PM MST
Moon No Moon Rise 9:39 AM MST (3/3)
Length of Visible Light 12h 18m
Length of Day
11h 24m
Waning Gibbous, 63% of the Moon is Illuminated
Mar 3
Waning Gibbous
Mar 4
Last Quarter
Mar 11
New
Mar 19
First Quarter
Mar 27
Full

Hourly Weather History & Observations

Time (MST) Temp. Windchill Dew Point Humidity Pressure Visibility Wind Dir Wind Speed Gust Speed Precip Events Conditions
12:53 AM 43.0 °F 38.8 °F 24.1 °F 47% 29.97 in 10.0 mi South 6.9 mph - N/A   Clear
1:53 AM 43.0 °F 36.8 °F 24.1 °F 47% 29.92 in 10.0 mi SSW 11.5 mph - N/A   Clear
2:53 AM 41.0 °F 34.3 °F 24.1 °F 51% 29.87 in 10.0 mi South 11.5 mph - N/A   Clear
3:53 AM 41.0 °F 34.3 °F 24.1 °F 51% 29.85 in 10.0 mi South 11.5 mph - N/A   Clear
4:53 AM 42.1 °F 34.9 °F 24.1 °F 49% 29.82 in 10.0 mi SSW 13.8 mph - N/A   Clear
5:53 AM 42.1 °F 33.9 °F 25.0 °F 51% 29.81 in 10.0 mi SW 17.3 mph - N/A   Clear
6:53 AM 39.9 °F 32.5 °F 26.1 °F 58% 29.81 in 10.0 mi WSW 12.7 mph - N/A   Clear
7:53 AM 42.1 °F 35.7 °F 27.0 °F 55% 29.82 in 10.0 mi WNW 11.5 mph - N/A   Clear
8:53 AM 46.0 °F 43.1 °F 28.0 °F 50% 29.79 in 10.0 mi WNW 5.8 mph - N/A   Clear
9:53 AM 46.0 °F 41.0 °F 28.9 °F 51% 29.78 in 10.0 mi WSW 10.4 mph - N/A   Clear
10:53 AM 50.0 °F - 28.9 °F 44% 29.74 in 10.0 mi West 8.1 mph - N/A   Mostly Cloudy
11:53 AM 55.0 °F - 27.0 °F 34% 29.69 in 10.0 mi NW 11.5 mph - N/A   Clear
12:53 PM 54.0 °F - 28.0 °F 37% 29.65 in 10.0 mi West 9.2 mph - N/A   Clear
1:53 PM 57.0 °F - 27.0 °F 32% 29.62 in 10.0 mi West 8.1 mph - N/A   Clear
2:53 PM 60.1 °F - 25.0 °F 26% 29.59 in 10.0 mi WSW 6.9 mph - N/A   Clear
3:53 PM 60.1 °F - 21.0 °F 22% 29.58 in 10.0 mi WNW 4.6 mph - N/A   Clear
4:53 PM 57.9 °F - 25.0 °F 28% 29.59 in 10.0 mi SSW 3.5 mph - N/A   Clear
5:53 PM 53.1 °F - 24.1 °F 32% 29.60 in 10.0 mi South 4.6 mph - N/A   Clear
6:53 PM 46.9 °F - 27.0 °F 46% 29.64 in 10.0 mi SSW 5.8 mph - N/A   Clear
7:53 PM 45.0 °F 40.6 °F 28.0 °F 52% 29.64 in 10.0 mi SW 8.1 mph - N/A   Overcast
8:53 PM 41.0 °F 36.4 °F 27.0 °F 57% 29.66 in 10.0 mi WNW 6.9 mph - N/A   Clear
9:53 PM 41.0 °F 36.4 °F 28.0 °F 60% 29.65 in 10.0 mi West 6.9 mph - N/A   Clear
10:53 PM 44.1 °F 40.1 °F 27.0 °F 51% 29.62 in 10.0 mi NW 6.9 mph - N/A   Clear
11:53 PM 36.0 °F 32.1 °F 27.0 °F 70% 29.63 in 10.0 mi West 4.6 mph - N/A   Partly Cloudy